ATLAS 5 CENTAUR DEB, 43983

Orbit data source: Space-Track

ATLAS 5 CENTAUR DEB, 43983 is space debris in HEO originally from a launch on Wed, 17 Sep 2014 UTC launched from the Air Force Eastern Test Range (AFETR). Debris objects in space refer to the collection of defunct objects orbiting the Earth. Examples of debris include non-operational satellites, rocket bodies, and fragments generated from explosions, collisions, or faulty payload assembly.

Loading next visibility...
Identifier
43983, 2014-055AN
Orbit
HEO
Last TLE update
2 days ago
Origin
Flag of USUnited Launch Alliance/Lockheed Martin (US)
Manufacturer
Unknown
Mission
Spacecraft
Bus & Motor
Unknown
Mass
Unknown
Launch date (UTC)
2014-09-17 (11 years ago)
Launch vehicle
Unknown
Launch site
Air Force Eastern Test Range (AFETR)
Object type
Payload
Rocket body
Debris
Shape & HBR
Unknown
Radar Cross Section
Small (<0.1 m²)

Expand to show TLE details & history

TLE from 2 days ago
0 ATLAS 5 CENTAUR DEB
1 43983U 14055AN  25180.14649520 -.00000064  00000-0  00000-0 0  9990
2 43983  20.1919 152.1635 4951668 148.9459 253.2531  1.90079505 47281
Epoch: 2025-06-29T03:30Z
TLE epoch observation values (Epoch: 2025-06-29T03:30:57.185Z)
Latitude
0.00002°
Longitude
-178.08433°
Altitude
29,695.67 km
Speed
2.76 km/s
True Right ascension
10h 08m 30s
True Declination
0° 00' 00"
Sunlit
Object was in daylight at epoch
Visualization orbit readout
Latitude
4.47654°
Longitude
-10.57489°
Altitude
7,722.171 km
Speed
6.485 km/s
Apparent Right ascension
21h 09m 46s
Apparent Declination
-17° 57' 07"
Sunlit
Object is in daylight
Visualization observer readout
Local Sidereal Time
21:35:00
Azimuth
187.065° SSW
Elevation
31.834°
Doppler factor
1
Orbital elements
Apogee altitude
34,784.182 km
Perigee altitude
7,520.048 km
Semi-major axis
27,530.252 km
Eccentricity
0.49517
Inclination
20.1919°
RAAN
152.1635°
Arg. of periapsis
148.9459°
True anomaly
Unknown
Mean anomaly
253.2531°
Eccentric anomaly
Unknown
Mean motion
0.47515 °/min
Orbital period
757.66 mins
BSTAR
0
Loading maneuver chart data...
Loading SW <> Apogee altitude chart data...
Loading historical data...
Loading historical data...
Loading historical data...
Loading historical data...
Loading historical data...
Loading historical data...
Loading historical data...

ATLAS 5 CENTAUR DEB Visibility forecast

Observer location: undefined°, undefined°

Span
Click to sort rows by Start time (UTC) header in descending order
Start Az.
Max El. time (UTC)
Max El. Az.
Max El.
End time (UTC)
End Az.
34 mins2025-07-01 09:56:38.175Z187.056° SSW2025-07-01 09:56:38.175Z187.056° SSW27.773°2025-07-01 10:30:38.175Z143.806° SSE
183 mins2025-07-01 17:41:38.175Z113.348° SE2025-07-01 19:36:38.175Z107.28° ESE15.889°2025-07-01 20:44:38.175Z92.83° ESE
|